Weather History for TNCE - November, 2011

Change the Weather History Date:

Saturday, November 12, 2011

  Actual Average Record
Temperature  
Mean Temperature 82 °F -  
Max Temperature 85 °F 82 °F 87 °F (1997)
Min Temperature 78 °F 76 °F 32 °F (2012)
Cooling Degree Days 16    
Growing Degree Days 32 (Base 50)    
Moisture  
Dew Point 73 °F    
Average Humidity 73    
Maximum Humidity 83    
Minimum Humidity 58    
Precipitation  
Precipitation 0.00 in - - ()
Sea Level Pressure  
Sea Level Pressure 29.95 in    
Wind  
Wind Speed 11 mph ()    
Max Wind Speed 17 mph    
Max Gust Speed -    
Visibility 7.8 miles    
Events      
Averages and records for this station are not official NWS values.
T = Trace of Precipitation, MM = Missing Value Source: Averaged Metar Reports

Daily Weather History Graph

Daily Weather History Graph

Search for Another Location

Airport or City:

Trip Planner

Search our weather history database for the weather conditions in past years. The results will help you decide how hot, cold, wet, or windy it might be!

Date:

Astronomy

Nov. 12, 2011 Rise Set
Actual Time 6:15 AM AST 5:36 PM AST
Civil Twilight 5:52 AM AST 5:59 PM AST
Nautical Twilight 5:26 AM AST 6:25 PM AST
Astronomical Twilight 5:00 AM AST 6:51 PM AST
Moon 7:03 PM AST (11/12) 7:39 AM AST (11/12)
Length of Visible Light 12h 06m
Length of Day
11h 21m
Full, 97% of the Moon is Illuminated
Nov 12
Full
Nov 18
Last Quarter
Nov 25
New
Dec 2
First Quarter
Dec 10
Full

Hourly Weather History & Observations

Time (AST) Temp. Heat Index Dew Point Humidity Pressure Visibility Wind Dir Wind Speed Gust Speed Precip Events Conditions
12:00 AM 78.8 °F - 73.4 °F 83% 29.95 in - ENE 10.4 mph - N/A   Unknown
1:00 AM 78.8 °F - 73.4 °F 83% 29.95 in - ENE 9.2 mph - N/A   Unknown
2:00 AM 79 °F - 72 °F 73%  in - East 8.1 mph - -   Clear
2:00 AM 78.8 °F - 71.6 °F 78% 29.95 in - ENE 8.1 mph - N/A   Unknown
3:00 AM 78.8 °F - 71.6 °F 78% 29.92 in - ENE 9.2 mph - N/A   Unknown
4:00 AM 78.8 °F - 73.4 °F 83% 29.92 in - ENE 12.7 mph - N/A   Unknown
5:00 AM 78.8 °F - 73.4 °F 83% 29.92 in - NE 11.5 mph - N/A   Unknown
7:00 AM 80.6 °F 85.4 °F 73.4 °F 79% 29.98 in 6.2 mi NE 12.7 mph - N/A   Scattered Clouds
8:00 AM 82.4 °F 88.2 °F 73.4 °F 74% 29.98 in 6.2 mi NE 13.8 mph - N/A   Scattered Clouds
9:00 AM 82.4 °F 89.5 °F 75.2 °F 79% 29.98 in 6.2 mi NE 12.7 mph - N/A   Scattered Clouds
10:00 AM 84.2 °F 90.9 °F 73.4 °F 70% 29.98 in 6.2 mi NE 15.0 mph - N/A   Scattered Clouds
11:00 AM 84 °F - 74 °F 65% 29.99 in 16 mi ENE 16.1 mph - -   Partly Cloudy
11:00 AM 84.2 °F 90.9 °F 73.4 °F 70% 29.98 in 6.2 mi NE 16.1 mph - N/A   Scattered Clouds
1:00 PM 86.0 °F 91.8 °F 71.6 °F 62% 29.95 in 6.2 mi ENE 16.1 mph - N/A   Partly Cloudy
2:00 PM 85 °F - 72 °F 58% 29.94 in 16 mi ENE 16.1 mph - -   Scattered Clouds
2:00 PM 86.0 °F 93.4 °F 73.4 °F 66% 29.95 in 6.2 mi ENE 15.0 mph - N/A   Partly Cloudy
3:00 PM 84.2 °F 90.9 °F 73.4 °F 70% 29.92 in 6.2 mi NE 17.3 mph - N/A   Scattered Clouds
4:00 PM 84.2 °F 90.9 °F 73.4 °F 70% 29.92 in 6.2 mi NE 16.1 mph - N/A   Scattered Clouds
5:00 PM 82 °F - 74 °F 70% 29.92 in 16 mi ENE 15.0 mph - -   Mostly Cloudy
5:00 PM 82.4 °F 88.2 °F 73.4 °F 74% 29.92 in 6.2 mi NE 12.7 mph - N/A   Mostly Cloudy
6:00 PM 80.6 °F 85.4 °F 73.4 °F 79% 29.92 in 6.2 mi NE 15.0 mph - N/A   Scattered Clouds
7:00 PM 80.6 °F 84.6 °F 71.6 °F 74% 29.95 in 6.2 mi ENE 13.8 mph - N/A   Scattered Clouds
8:00 PM 80 °F - 71 °F 69% 29.98 in 6 mi ENE 15.0 mph - -   Partly Cloudy
8:00 PM 80.6 °F 84.6 °F 71.6 °F 74% 29.98 in 6.2 mi ENE 15.0 mph - N/A   Scattered Clouds
9:00 PM 80.6 °F 84.6 °F 71.6 °F 74% 29.98 in 6.2 mi ENE 12.7 mph - N/A   Scattered Clouds
10:00 PM 80.6 °F 83.9 °F 69.8 °F 70% 29.98 in - ENE 13.8 mph - N/A   Unknown